Location: Abraham Lincoln Continuation High School
(33.9711°N, 117.3662°W)
Time: 10:37:53
(UTC+00:00)

Cosmos 1680 Rocket - Pass Details

Date: 19 January 2021
Orbit: 761 x 780 km, 74.1° (Epoch: 08 March)

Event Time Altitude Azimuth Distance (km) Brightness Sun altitude
Rises 03:54:32 0° 338° (NNW) 3,238 7.0 -34.5°
Reaches altitude 10° 03:56:56 10° 335° (NNW) 2,305 6.2 -35.0°
Enters shadow 03:57:10 11° 335° (NNW) 2,220 6.1 -35.0°
